Deming, NM

9:42 AM MDT on September 22, 2017 (GMT -0600)
Deming Municipal

Weather History for KDMN - September, 2013

Change the Weather History Date:

Thursday, September 19, 2013

  Actual Average Record
Temperature  
Mean Temperature 74 °F 72 °F  
Max Temperature 86 °F 87 °F 97 °F (1951)
Min Temperature 62 °F 57 °F 41 °F (1993)
Cooling Degree Days 9    
Growing Degree Days 24 (Base 50)    
Moisture  
Dew Point 60 °F    
Average Humidity 65    
Maximum Humidity 93    
Minimum Humidity 37    
Precipitation  
Precipitation 0.00 in 0.05 in 0.67 in (1985)
Month to date precipitation 3.06 0.84  
Year to date precipitation 9.30 8.43  
Sea Level Pressure  
Sea Level Pressure 29.77 in    
Wind  
Wind Speed 7 mph (ENE)    
Max Wind Speed 21 mph    
Max Gust Speed 29 mph    
Visibility 10 miles    
Events Thunderstorm    
T = Trace of Precipitation, MM = Missing Value Source: NWS Daily Summary

Daily Weather History Graph

Daily Weather History Graph

Search for Another Location

Airport or City:

Trip Planner

Search our weather history database for the weather conditions in past years. The results will help you decide how hot, cold, wet, or windy it might be!

Date:

Astronomy

Sep. 19, 2013 Rise Set
Actual Time 6:57 AM MDT 7:11 PM MDT
Civil Twilight 6:32 AM MDT 7:35 PM MDT
Nautical Twilight 6:04 AM MDT 8:04 PM MDT
Astronomical Twilight 5:35 AM MDT 8:33 PM MDT
Moon 7:16 PM MDT (9/19) 7:06 AM MDT (9/19)
Length of Visible Light 13h 02m
Length of Day
12h 13m
Full, 100% of the Moon is Illuminated
Sep 19
Full
Sep 26
Last Quarter
Oct 4
New
Oct 11
First Quarter
Oct 18
Full

Hourly Weather History & Observations

Time (MDT) Temp. Heat Index Dew Point Humidity Pressure Visibility Wind Dir Wind Speed Gust Speed Precip Events Conditions
12:53 AM 66.9 °F - 60.1 °F 79% 29.73 in 10.0 mi NW 5.8 mph - N/A   Clear
1:53 AM 66.0 °F - 60.1 °F 81% 29.75 in 10.0 mi NNW 5.8 mph - N/A   Clear
2:53 AM 64.9 °F - 61.0 °F 87% 29.75 in 10.0 mi North 8.1 mph - N/A   Clear
3:53 AM 64.9 °F - 61.0 °F 87% 29.73 in 10.0 mi NNE 5.8 mph - N/A   Clear
4:53 AM 64.0 °F - 61.0 °F 90% 29.74 in 10.0 mi ENE 5.8 mph - N/A   Clear
5:53 AM 64.0 °F - 60.1 °F 87% 29.75 in 10.0 mi ENE 5.8 mph - N/A   Clear
6:53 AM 62.1 °F - 60.1 °F 93% 29.78 in 10.0 mi East 5.8 mph - N/A   Clear
7:53 AM 64.9 °F - 61.0 °F 87% 29.80 in 10.0 mi East 4.6 mph - N/A   Clear
8:53 AM 71.1 °F - 62.1 °F 73% 29.81 in 10.0 mi ENE 6.9 mph - N/A   Clear
9:53 AM 73.9 °F - 62.1 °F 66% 29.81 in 10.0 mi East 10.4 mph - N/A   Clear
10:53 AM 77.0 °F - 63.0 °F 62% 29.81 in 10.0 mi East 10.4 mph - N/A   Clear
11:53 AM 80.1 °F 81.2 °F 62.1 °F 54% 29.78 in 10.0 mi ENE 9.2 mph - N/A   Clear
12:53 PM 82.0 °F 83.0 °F 62.1 °F 51% 29.76 in 10.0 mi ESE 10.4 mph - N/A   Clear
1:53 PM 84.0 °F 84.4 °F 61.0 °F 46% 29.74 in 10.0 mi ENE 9.2 mph - N/A   Clear
2:53 PM 84.0 °F 83.8 °F 59.0 °F 43% 29.72 in 10.0 mi ESE 6.9 mph - N/A   Clear
3:53 PM 86.0 °F 85.0 °F 57.9 °F 38% 29.70 in 10.0 mi East 10.4 mph 16.1 mph N/A   Clear
4:53 PM 84.9 °F 84.2 °F 57.9 °F 40% 29.70 in 10.0 mi Variable 3.5 mph - N/A   Partly Cloudy
5:53 PM 82.0 °F 82.0 °F 57.9 °F 44% 29.71 in 10.0 mi East 4.6 mph - N/A   Clear
6:53 PM 79.0 °F - 57.9 °F 48% 29.72 in 10.0 mi ENE 4.6 mph - N/A   Clear
7:05 PM 78.8 °F - 59.0 °F 51% 29.92 in 10.0 mi ENE 3.5 mph - N/A Thunderstorm Clear
7:20 PM 78.8 °F - 59.0 °F 51% 29.93 in 10.0 mi NNE 3.5 mph - N/A   Partly Cloudy
7:53 PM 75.9 °F - 60.1 °F 58% 29.72 in 10.0 mi Calm Calm - N/A   Mostly Cloudy
8:53 PM 70.0 °F - 57.9 °F 65% 29.79 in 10.0 mi ESE 16.1 mph 21.9 mph N/A   Overcast
9:53 PM 70.0 °F - 57.0 °F 63% 29.80 in 10.0 mi East 8.1 mph 19.6 mph N/A   Mostly Cloudy
10:53 PM 66.0 °F - 60.1 °F 81% 29.81 in 10.0 mi North 4.6 mph - N/A   Scattered Clouds
11:53 PM 64.9 °F - 60.1 °F 84% 29.81 in 10.0 mi Calm Calm - N/A   Clear